sat.trackr.live / text

‹ back to catalog

STARLINK-3456

NORAD 51759 · 2022-016AX

PAYLOAD ACTIVE UNKNOWN

§ Identity

Operator
Country
US
Launch date
2022-02-21
Launch site
AFETR
Launch vehicle
Mass (kg)
RCS (m²)

Purposes: comms

External: N2YO · Heavens-Above · Gunter

§ Orbital elements

Epoch: 2026-09-20T03:51:02.271744Z

Period
93.85 min
Inclination
53.1587°
Eccentricity
0.0001217
Mean motion
15.34393468 rev/d
Perigee alt
461.9 km
Apogee alt
463.6 km
Semi-major
6,840.9 km
B*
2.6000e-5
RAAN
140.9590°
Arg perigee
95.9039°
Mean anomaly
264.2102°
Rev number
25,327

§ Raw data

STARLINK-34561 51759U 22016AX  26263.16044296  .00000502  00000+0  26000-4 0  99972 51759  53.1587 140.9590 0001217  95.9039 264.2102 15.34393468253274

JSON: /api/v1/satellites/51759 · /tle

For live sub-satellite position, see the globe view (requires WebGL).

§ Visibility from observer

Set your observer location to see the next 7 days of passes ≥ 10°. The values pass through the URL so the page stays shareable.

No JS? Fill the form by hand. The geolocation button needs JavaScript.